TimeEST,TemperatureF,Dew PointF,Humidity,Sea Level PressureIn,VisibilityMPH,Wind Direction,Wind SpeedMPH,Gust SpeedMPH,PrecipitationIn,Events,Conditions,WindDirDegrees,DateUTC
12:13 AM,46.4,41.0,81,30.40,10.0,Calm,Calm,-,N/A,,Clear,0,2012-11-11 05:13:00
12:34 AM,46.4,41.0,81,30.40,10.0,Calm,Calm,-,N/A,,Clear,0,2012-11-11 05:34:00
12:56 AM,46.4,41.0,81,30.39,10.0,Calm,Calm,-,N/A,,Clear,0,2012-11-11 05:56:00
1:17 AM,46.4,41.0,81,30.39,10.0,Calm,Calm,-,N/A,,Clear,0,2012-11-11 06:17:00
1:38 AM,46.4,41.0,81,30.39,10.0,Calm,Calm,-,N/A,,Clear,0,2012-11-11 06:38:00
1:59 AM,46.4,41.0,81,30.39,10.0,Calm,Calm,-,N/A,,Clear,0,2012-11-11 06:59:00
2:21 AM,48.2,41.0,76,30.39,10.0,Calm,Calm,-,N/A,,Clear,0,2012-11-11 07:21:00
2:42 AM,48.2,41.0,76,30.39,10.0,South,3.5,-,N/A,,Clear,170,2012-11-11 07:42:00
3:03 AM,48.2,41.0,76,30.39,10.0,South,3.5,-,N/A,,Clear,170,2012-11-11 08:03:00
3:25 AM,48.2,39.2,71,30.39,10.0,South,4.6,-,N/A,,Clear,170,2012-11-11 08:25:00
3:46 AM,48.2,41.0,76,30.39,10.0,South,4.6,-,N/A,,Clear,170,2012-11-11 08:46:00
4:07 AM,46.4,41.0,81,30.40,10.0,SSE,3.5,-,N/A,,Clear,160,2012-11-11 09:07:00
4:28 AM,46.4,41.0,81,30.41,10.0,Calm,Calm,-,N/A,,Clear,0,2012-11-11 09:28:00
4:50 AM,46.4,41.0,81,30.42,10.0,SSE,3.5,-,N/A,,Clear,160,2012-11-11 09:50:00
5:11 AM,46.4,41.0,81,30.42,10.0,South,3.5,-,N/A,,Clear,180,2012-11-11 10:11:00
5:53 AM,46.4,41.0,81,30.43,10.0,South,3.5,-,N/A,,Clear,170,2012-11-11 10:53:00
6:15 AM,44.6,39.2,81,30.44,10.0,Calm,Calm,-,N/A,,Clear,0,2012-11-11 11:15:00
6:36 AM,44.6,39.2,81,30.44,10.0,Calm,Calm,-,N/A,,Clear,0,2012-11-11 11:36:00
7:18 AM,46.4,41.0,81,30.46,10.0,South,4.6,-,N/A,,Clear,180,2012-11-11 12:18:00
7:40 AM,46.4,41.0,81,30.47,10.0,SSW,4.6,-,N/A,,Clear,200,2012-11-11 12:40:00
8:22 AM,51.8,41.0,67,30.48,10.0,SSW,4.6,-,N/A,,Clear,200,2012-11-11 13:22:00
9:47 AM,59.0,41.0,51,30.49,10.0,South,3.5,-,N/A,,Clear,180,2012-11-11 14:47:00
10:08 AM,60.8,39.2,45,30.49,10.0,SSW,3.5,-,N/A,,Clear,210,2012-11-11 15:08:00
10:29 AM,60.8,41.0,48,30.49,10.0,SE,3.5,-,N/A,,Clear,140,2012-11-11 15:29:00
10:51 AM,62.6,41.0,45,30.48,10.0,South,3.5,-,N/A,,Clear,180,2012-11-11 15:51:00
11:12 AM,64.4,41.0,42,30.47,10.0,SSE,3.5,-,N/A,,Clear,150,2012-11-11 16:12:00
11:33 AM,64.4,39.2,40,30.47,10.0,SE,4.6,-,N/A,,Clear,140,2012-11-11 16:33:00
11:54 AM,68.0,37.4,33,30.46,10.0,SSW,5.8,-,N/A,,Clear,210,2012-11-11 16:54:00
12:16 PM,68.0,41.0,37,30.45,10.0,SSE,5.8,-,N/A,,Clear,150,2012-11-11 17:16:00
12:37 PM,68.0,37.4,33,30.45,10.0,South,5.8,-,N/A,,Clear,170,2012-11-11 17:37:00
1:19 PM,69.8,39.2,33,30.43,10.0,South,4.6,-,N/A,,Clear,170,2012-11-11 18:19:00
1:41 PM,69.8,37.4,31,30.42,10.0,SSE,4.6,-,N/A,,Clear,150,2012-11-11 18:41:00
2:02 PM,69.8,37.4,31,30.42,10.0,SSW,3.5,-,N/A,,Clear,200,2012-11-11 19:02:00
2:23 PM,69.8,35.6,28,30.42,10.0,SSE,6.9,-,N/A,,Clear,150,2012-11-11 19:23:00
2:44 PM,69.8,37.4,31,30.42,10.0,SSE,5.8,-,N/A,,Clear,150,2012-11-11 19:44:00
3:05 PM,69.8,37.4,31,30.42,10.0,SSE,6.9,-,N/A,,Clear,150,2012-11-11 20:05:00
3:27 PM,69.8,37.4,31,30.42,10.0,SSE,4.6,-,N/A,,Clear,160,2012-11-11 20:27:00
3:48 PM,68.0,39.2,35,30.43,10.0,SSE,3.5,-,N/A,,Clear,160,2012-11-11 20:48:00
4:09 PM,66.2,41.0,40,30.43,10.0,ESE,5.8,-,N/A,,Clear,120,2012-11-11 21:09:00
4:31 PM,62.6,42.8,48,30.43,10.0,SE,6.9,-,N/A,,Clear,130,2012-11-11 21:31:00
4:52 PM,62.6,42.8,48,30.44,10.0,SE,6.9,-,N/A,,Clear,140,2012-11-11 21:52:00
5:13 PM,60.8,44.6,55,30.44,10.0,SE,6.9,-,N/A,,Clear,130,2012-11-11 22:13:00
5:34 PM,59.0,42.8,55,30.45,10.0,SE,4.6,-,N/A,,Clear,140,2012-11-11 22:34:00
5:55 PM,59.0,42.8,55,30.46,10.0,SE,4.6,-,N/A,,Clear,140,2012-11-11 22:55:00
6:17 PM,59.0,42.8,55,30.47,10.0,SE,6.9,-,N/A,,Clear,140,2012-11-11 23:17:00
6:38 PM,59.0,42.8,55,30.47,10.0,SE,6.9,-,N/A,,Clear,140,2012-11-11 23:38:00
6:59 PM,57.2,42.8,59,30.47,10.0,SE,6.9,-,N/A,,Clear,130,2012-11-11 23:59:00
7:20 PM,57.2,42.8,59,30.47,10.0,SE,5.8,-,N/A,,Clear,140,2012-11-12 00:20:00
7:42 PM,55.4,42.8,63,30.47,10.0,SE,3.5,-,N/A,,Clear,140,2012-11-12 00:42:00
8:03 PM,55.4,42.8,63,30.47,10.0,SE,5.8,-,N/A,,Clear,140,2012-11-12 01:03:00
8:24 PM,55.4,44.6,67,30.47,10.0,SE,5.8,-,N/A,,Clear,140,2012-11-12 01:24:00
8:45 PM,53.6,44.6,72,30.47,10.0,SE,5.8,-,N/A,,Clear,140,2012-11-12 01:45:00
9:07 PM,53.6,46.4,77,30.47,10.0,SSE,3.5,-,N/A,,Clear,150,2012-11-12 02:07:00
9:28 PM,53.6,46.4,77,30.47,10.0,SE,4.6,-,N/A,,Clear,140,2012-11-12 02:28:00
9:49 PM,53.6,46.4,77,30.47,10.0,SSE,3.5,-,N/A,,Clear,150,2012-11-12 02:49:00
10:10 PM,51.8,46.4,82,30.47,10.0,Calm,Calm,-,N/A,,Clear,0,2012-11-12 03:10:00
10:32 PM,51.8,46.4,82,30.46,10.0,SE,3.5,-,N/A,,Clear,140,2012-11-12 03:32:00
11:14 PM,51.8,46.4,82,30.45,10.0,SSE,5.8,-,N/A,,Clear,150,2012-11-12 04:14:00
11:36 PM,51.8,46.4,82,30.45,10.0,South,3.5,-,N/A,,Clear,180,2012-11-12 04:36:00
11:57 PM,51.8,46.4,82,30.45,10.0,SSE,3.5,-,N/A,,Clear,160,2012-11-12 04:57:00